Weather in Tyurlema

Russia / Chuvash Republic     55°45′43″N   48°13′18″E
temp.,
°C
wind,
m/s
gust,
m/s
humid.,
%
clouds,
%
prec.,
mm/h
press.,
hPa
HPBL,
m
6 may, thu
thu600:00+4wsw3985100 0.0 1011179
03:00+5wsw2476100 0.0 1012116
06:00+6s2385100 0.1 1013117
09:00+9sw358233 0.1 1015411
12:00+15sw576478 0.0 10151211
15:00+17sw685343 0.2 10141760
18:00+15ssw4969100 0.0 1014271
21:00+11s3982100 0.0 1015148
7 may, fri
fri700:00+10s41282100 0.0 1015251
03:00+9s41281100 0.0 1015232
06:00+10s51275100 0.0 1015310
09:00+15s71259100 0.0 1014821
12:00+17ssw81151100 0.1 10142029
15:00+17ssw6115294 0.2 10142093
18:00+12wsw5984100 1.3 1015409
21:00+9w118699 0.8 101832
8 may, sat
sat800:00+7nnw1189100 0.0 101910
03:00+6nne229081 0.0 101911
06:00+8ne24835 0.0 1019150
09:00+13ese567132 0.0 1018679
12:00+17sse686044 0.1 10161553
15:00+18sse585379 0.1 10151456
18:00+16sse61165100 0.0 1014466
21:00+13sse51376100 0.0 1014265
9 may, sun
sun900:00+11sse5157893 0.0 1013317
03:00+12sse71767100 0.0 1012470
06:00+13s71666100 0.0 1013577
09:00+14sse81669100 0.3 1013776
12:00+17s6863100 0.0 10141055
15:00+10nnw3595100 2.8 1016189
18:00+9nnw5893100 2.1 1018350
21:00+8nnw4892100 2.5 1020379
10 may, mon
mon1000:00+7n4994100 2.0 1021442
03:00+7nne5996100 4.8 1023459
06:00+7n5996100 1.3 1025464
09:00+8nne5992100 2.4 1026519
12:00+8ne3790100 1.3 1028417
15:00+8e2490100 1.4 1028182
18:00+10ene12815 0.0 1028206
21:00+7ssw008821 0.0 103010